User: anonymous
Location: Fort Wayne
(41.1310°N, 85.1290°W)
Time: 02:24:18
(UTC-04:00)
Language:

Cosmos 1000 Rocket - Orbit

View from above orbital plane
View from above orbital plane
View from above satellite
View from above satellite

Ground track
Ground track

The orbit data is extracted from the following two-line orbital elements,

1 10777U 78034B   14294.00042669  .00000176  00000-0  16204-3 0  3715
2 10777 082.9447 232.1290 0026907 038.2387 008.6373 13.77313445836835
Epoch (UTC): 21 October 2014 00:00:36
Eccentricity: 0.0026907
inclination: 82.9447°
perigee height: 953 km
apogee height: 993 km
right ascension of ascending node: 232.1290°
argument of perigee: 38.2387°
revolutions per day: 13.77313445
mean anomaly at epoch: 8.6373°
orbit number at epoch: 83683

The dashed part of the orbit path shows where the satellite is in the earth's shadow,  

DLR